Flag for Germany Weather past 2 weeks in Schwäbisch Gmünd, Baden-Württemberg, Germany

Now
52 °F

Light freezing rain. Low clouds.


Feels Like: 50 °F
Forecast: 44 / 63 °F
Wind: 7 mph from Northwest

Location: Stoetten

Current Time: Oct 20, 2014 at 11:56:59 PM

Latest Report: Oct 20, 2014 at 11:00 PM


Visibility: 5 mi

Pressure: 30.03 "Hg

Humidity: 97%

Dew point: 51 °F

Location of Schwäbisch GmündLocation

Historic Weather in Schwäbisch Gmünd — Graph

°F

Schwäbisch Gmünd temperature yesterday

Maximum temperature yesterday: 69 °F (at 2:00 PM)
Minimum temperature yesterday: 54 °F (at 3:00 AM)
Average temperature yesterday: 62 °F

Past Weeks' High & Low Weather Summary

 TemperatureHumidityPressure
High74 °F (Oct 9, 3:00 PM)100% (Oct 6, 4:00 AM)30.25 "Hg (Oct 6, 4:00 AM)
Low47 °F (Oct 6, 8:00 AM)41% (Oct 9, 3:00 PM)29.75 "Hg (Oct 15, 5:00 PM)
Average55 °F88%29.93 "Hg
* Reported Oct 5 10:00 PM — Oct 20 10:00 PM, Schwäbisch Gmünd, Weather by CustomWeather, © 2014

Note: Actual official high and low records may vary slightly from our data, if they occured in-between our weather recording intervals... More about our weather records

Advertising

Schwäbisch Gmünd weather history for previous 24 hours

 ConditionsComfort  
Time TempWeatherWind HumidityBarometerVisibility
10:00 PM
Oct 20
54 °FLight rain. Low clouds.6 mph99%30.03 "Hg0 mi
9:00 PM54 °FLow clouds.5 mph99%30.03 "Hg9 mi
8:00 PM54 °FLight rain. Low clouds.3 mph98%30.04 "Hg9 mi
7:00 PM55 °FLight rain. Low clouds.5 mph99%30.05 "Hg8 mi
6:00 PM56 °FLow clouds.5 mph98%30.04 "Hg5 mi
5:00 PM56 °FLight rain. Low clouds.5 mph98%30.05 "Hg7 mi
4:00 PM57 °FLight rain. Low clouds.3 mph95%30.06 "Hg19 mi
3:00 PM60 °FOvercast.5 mph86%30.06 "Hg22 mi
2:00 PM61 °FOvercast.8 mph81%30.06 "Hg25 mi
1:00 PM61 °FOvercast.8 mph80%30.08 "Hg34 mi
12:00 PM61 °FOvercast.9 mph80%30.08 "Hg34 mi
11:00 AM61 °FOvercast.8 mph81%30.09 "Hg31 mi
10:00 AM60 °FOvercast.8 mph80%30.10 "Hg37 mi
9:00 AM59 °FOvercast.6 mph83%30.11 "Hg37 mi
8:00 AM59 °FOvercast.6 mph83%30.11 "Hg34 mi
7:00 AM58 °FPassing clouds.7 mph85%30.11 "Hg34 mi
5:00 AM58 °FClear.6 mph83%30.11 "Hg25 mi
4:00 AM59 °FClear.7 mph81%30.12 "Hg25 mi
3:00 AM59 °FPassing clouds.8 mph79%30.14 "Hg31 mi
2:00 AM60 °FClear.9 mph73%30.13 "Hg34 mi
1:00 AM61 °FOvercast.9 mph69%30.12 "Hg37 mi
12:00 AM62 °FOvercast.8 mph66%30.12 "Hg40 mi
11:00 PM
Oct 19
61 °FPassing clouds.8 mph67%30.13 "Hg43 mi
Weather by CustomWeather, © 2014

See weather overviewHow to use our weather pages